This is the latest recevied weather packets stored in our database for station/object PA3CPS. If no packets are shown the sender has not sent any weather packets the latest 1 day(s).
| Time | Temp. | Humidity | Pressure | Rain* | Wind** | Luminosity | Snow |
|---|---|---|---|---|---|---|---|
| 1778051612 | 10° C | 76% | 1007.4 hPa | 0 mm | - | 125 W/m² | - |
| 1778051310 | 10° C | 80% | 1007.5 hPa | 0 mm | - | 118 W/m² | - |
| 1778051009 | 10° C | 82% | 1007.5 hPa | 0 mm | - | 111 W/m² | - |
| 1778050708 | 10° C | 83% | 1007.3 hPa | 0 mm | - | 107 W/m² | - |
| 1778050407 | 10° C | 85% | 1007.4 hPa | 0 mm | - | 105 W/m² | - |
| 1778049800 | 10° C | 86% | 1007.4 hPa | 0 mm | - | 81 W/m² | - |
| 1778049500 | 9.44° C | 87% | 1007.3 hPa | 0 mm | - | 69 W/m² | - |
| 1778049199 | 9.44° C | 87% | 1007.3 hPa | 0 mm | - | 63 W/m² | - |
| 1778048897 | 9.44° C | 87% | 1007.3 hPa | 0 mm | - | 62 W/m² | - |
| 1778048596 | 9.44° C | 87% | 1007.2 hPa | 0 mm | - | 58 W/m² | - |
| 1778048296 | 9.44° C | 87% | 1007.1 hPa | 0 mm | - | 51 W/m² | - |
| 1778047385 | 9.44° C | 88% | 1007.1 hPa | 0 mm | - | 39 W/m² | - |
| 1778046785 | 9.44° C | 88% | 1007 hPa | 0 mm | - | 32 W/m² | - |
| 1778046186 | 9.44° C | 89% | 1007 hPa | 0 mm | - | 23 W/m² | - |
| 1778044682 | 9.44° C | 89% | 1007 hPa | 0 mm | - | 14 W/m² | - |
| 1778043779 | 9.44° C | 89% | 1006.8 hPa | 0 mm | - | 9 W/m² | - |
| 1778043478 | 9.44° C | 89% | 1006.7 hPa | 0 mm | - | 9 W/m² | - |
| 1778043178 | 9.44° C | 89% | 1006.7 hPa | 0 mm | - | 7 W/m² | - |
| 1778042876 | 9.44° C | 89% | 1006.8 hPa | 0 mm | - | 7 W/m² | - |
| 1778042575 | 9.44° C | 89% | 1006.8 hPa | 0 mm | - | 7 W/m² | - |
| 1778042272 | 9.44° C | 89% | 1006.8 hPa | 0 mm | - | 0 W/m² | - |
| 1778041972 | 9.44° C | 89% | 1006.8 hPa | 0 mm | - | 0 W/m² | - |
| 1778041669 | 9.44° C | 88% | 1006.8 hPa | 0 mm | - | 0 W/m² | - |
| 1778041066 | 9.44° C | 88% | 1006.7 hPa | 0 mm | - | 0 W/m² | - |
| 1778040764 | 9.44° C | 88% | 1006.8 hPa | 0 mm | - | 0 W/m² | - |
* Rain latest hour (hover to see other rain measurements)
** Current wind speed in m/s (hover to see current wind gust speed)